Back to catalog

STARLINK-35846

AliveCommunicationsVLEO
NORAD 66367·PAYLOAD·🇺🇸 United States

Launched Nov 6, 2025 from Vandenberg Space Force Base

Loading…

Next Passes (next 24 hours)

TLE

FreshSource: CelesTrak SupGP

Epoch: Sep 15, 2026, 03:36 UTC

1 66367C 25254V   26258.15048611 -.00030407  00000+0 -89867-3 0  2589
2 66367  53.1578  70.4605 0001165  89.8820 162.2035 15.34396175    13

Track STARLINK-35846 in real time with AllMySat

Download on the App Store